FW6856 Weather Reports


time (UTC)temp
C
wind
direction
speed
KPH
gust
KPH
rain 1hr
cm
rain 24hr
cm
rain mn
cm
humidity
%
barometer
mb
20260505151549 15 227 3.2 14.5 0.00 0.00 0.00 56 1019.8
20260505124555 10 249 3.2 8.0 0.00 0.00 0.00 64 1018.7
20260505123049 10 233 3.2 9.7 0.00 0.00 0.00 64 1018.5
20260505121543 10 360 3.2 12.9 0.00 0.00 0.00 65 1018.5
20260505120054 10 234 1.6 8.0 0.00 0.00 0.00 63 1018.4
20260505114542 10 242 1.6 8.0 0.00 0.00 0.00 64 1018.4
20260505113109 10 360 1.6 8.0 0.00 0.00 0.00 65 1018.2
20260505111549 10 246 3.2 8.0 0.00 0.00 0.00 65 1017.9
20260505101550 9 360 1.6 8.0 0.00 0.00 0.00 66 1017.8
20260505100045 9 0 1.6 8.0 0.00 0.00 0.00 67 1017.8
20260505094545 9 360 1.6 4.8 0.00 0.00 0.00 67 1017.9
20260505093051 9 360 3.2 9.7 0.00 0.00 0.00 66 1017.8
20260505091546 9 360 1.6 16.1 0.00 0.00 0.00 66 1017.9
20260505090049 9 227 3.2 12.9 0.00 0.00 0.00 66 1017.8
20260505084552 10 229 3.2 12.9 0.00 0.00 0.00 65 1017.8
20260505083051 10 275 4.8 16.1 0.00 0.00 0.00 64 1017.9
20260505081550 10 360 3.2 9.7 0.00 0.00 0.00 65 1018.0
20260505080049 10 360 1.6 14.5 0.00 0.00 0.00 63 1017.9
20260505074542 10 202 4.8 19.3 0.00 0.00 0.00 63 1017.8
20260505073048 10 360 4.8 14.5 0.00 0.00 0.00 63 1017.9
20260505071545 10 360 4.8 14.5 0.00 0.00 0.00 62 1017.9
20260505070050 10 211 4.8 17.7 0.00 0.00 0.00 62 1017.8
20260505064551 10 360 6.4 16.1 0.00 0.00 0.00 62 1018.0
20260505063042 10 221 4.8 16.1 0.00 0.00 0.00 62 1018.0
20260505061545 10 360 4.8 14.5 0.00 0.00 0.00 62 1018.3
20260505060049 10 217 3.2 12.9 0.00 0.00 0.00 63 1018.4
20260505054549 10 218 3.2 12.9 0.00 0.00 0.00 63 1018.4
20260505053108 10 22 1.6 12.9 0.00 0.00 0.00 65 1018.4
20260505051543 10 178 1.6 16.1 0.00 0.00 0.00 65 1018.4
20260505050104 11 183 3.2 14.5 0.00 0.00 0.00 64 1018.5
20260505041545 11 180 1.6 14.5 0.00 0.00 0.00 63 1018.5
20260505040049 11 245 3.2 17.7 0.00 0.00 0.00 63 1018.7
20260505034601 11 360 3.2 9.7 0.00 0.00 0.00 62 1018.9
20260505033052 11 185 3.2 9.7 0.00 0.00 0.00 63 1018.9
20260505031547 11 200 3.2 12.9 0.00 0.00 0.00 63 1019.3
20260505030049 11 360 1.6 8.0 0.00 0.00 0.00 63 1019.0
20260505024543 11 223 4.8 12.9 0.00 0.00 0.00 63 1019.1
20260505023050 11 360 1.6 12.9 0.00 0.00 0.00 63 1019.0
20260505021549 11 0 1.6 9.7 0.00 0.00 0.00 63 1019.0
20260505020047 11 185 1.6 4.8 0.00 0.00 0.00 63 1018.9
20260505014547 11 0 0.0 6.4 0.00 0.00 0.00 63 1018.7
20260505013051 11 360 0.0 4.8 0.00 0.00 0.00 61 1018.7
20260505011603 11 153 1.6 6.4 0.00 0.00 0.00 61 1018.7
20260505010048 12 171 1.6 6.4 0.00 0.00 0.00 60 1018.7
20260505004544 12 219 1.6 6.4 0.00 0.00 0.00 60 1018.4
20260505003044 12 227 1.6 8.0 0.00 0.00 0.00 60 1018.4
20260505001547 13 212 0.0 4.8 0.00 0.00 0.00 58 1018.4
20260505000055 13 254 0.0 4.8 0.00 0.00 0.00 57 1018.3
20260504234538 13 0 0.0 3.2 0.00 0.00 0.00 62 1018.3
20260504233057 14 235 0.0 3.2 0.00 0.00 0.00 61 1018.2
20260504231542 15 0 0.0 4.8 0.00 0.00 0.00 59 1018.2
20260504230044 15 0 1.6 6.4 0.00 0.00 0.00 59 1018.2
20260504224544 16 225 1.6 6.4 0.00 0.00 0.00 58 1018.1
20260504223048 16 167 1.6 8.0 0.00 0.00 0.00 55 1018.2
20260504221544 17 240 3.2 8.0 0.00 0.00 0.00 54 1018.2
20260504220045 17 200 3.2 12.9 0.00 0.00 0.00 53 1018.3
20260504214543 17 360 4.8 16.1 0.00 0.00 0.00 52 1018.2
20260504213042 18 360 3.2 9.7 0.00 0.00 0.00 49 1018.2
20260504211545 18 273 3.2 12.9 0.00 0.00 0.00 49 1018.1
20260504210048 18 206 3.2 20.9 0.00 0.00 0.00 49 1018.1
20260504204543 19 262 3.2 8.0 0.00 0.00 0.00 48 1018.1
20260504203048 20 217 3.2 9.7 0.00 0.00 0.00 46 1018.2
20260504201544 19 161 4.8 17.7 0.00 0.00 0.00 44 1018.1
20260504200042 20 360 3.2 14.5 0.00 0.00 0.00 39 1018.2
20260504194548 20 251 6.4 14.5 0.00 0.00 0.00 35 1018.5
20260504193045 21 360 4.8 16.1 0.00 0.00 0.00 36 1018.7
20260504191554 21 241 4.8 16.1 0.00 0.00 0.00 36 1018.7
20260504190051 20 211 6.4 14.5 0.00 0.00 0.00 33 1018.9
20260504184548 20 227 3.2 12.9 0.00 0.00 0.00 42 1019.1
20260504183044 20 63 4.8 17.7 0.00 0.00 0.00 41 1019.3
20260504181546 20 227 4.8 17.7 0.00 0.00 0.00 42 1019.3
20260504180048 18 105 3.2 12.9 0.00 0.00 0.00 37 1019.3
20260504174552 18 284 3.2 9.7 0.00 0.00 0.00 41 1019.5
20260504173049 17 315 1.6 9.7 0.00 0.00 0.00 44 1019.6
20260504171549 18 251 4.8 9.7 0.00 0.00 0.00 43 1019.5